Regional Weather Roundup
Issued by NWS

Home | Current Version | Previous Version | Text Only | Print | Product List | Glossary Off
Versions: 1 2 3 4 5 6 7 8 9 10 11 12 13 14 15 16 17 18 19 20 21 22 23 24 25 26 27 28 29 30 31 32 33 34 35 36 37 38 39 40 41 42 43 44 45 46 47 48 49 50

000
ASUS43 KOAX 211102
RWRNE

WEATHER ROUNDUP FOR NEBRASKA
NATIONAL WEATHER SERVICE OMAHA NE
500 AM CST SUN DEC 21 2014

NOTES: SATELLITE DATA IS BEING USED TO AUGMENT CLOUD COVER ABOVE
       12000 FEET.
       "FAIR" INDICATES FEW OR NO CLOUDS BELOW 12,000 FEET WITH NO
       SIGNIFICANT WEATHER AND/OR OBSTRUCTIONS TO VISIBILITY.

  * THESE STATIONS DO NOT REPORT WEATHER SUCH AS RAIN...SNOW OR FOG.

NEZ001>004-019>022-054>056-211200-
NEBRASKA PANHANDLE

CITY           SKY/WX    TMP DP  RH WIND       PRES   REMARKS
SCOTTSBLUFF    CLEAR     21  16  81 E6        29.74F WCI  13
ALLIANCE       CLEAR     22  18  85 SW8       29.73F WCI  12
CHADRON        CLEAR     27  22  81 SW8       29.70F WCI  19
SIDNEY         CLEAR     24  20  84 SW10      29.79F WCI  14
$$

NEZ057>060-069>072-079>082-211200-
SOUTHWEST NEBRASKA

CITY           SKY/WX    TMP DP  RH WIND       PRES   REMARKS
NORTH PLATTE   CLOUDY    27  25  92 CALM      29.81F
IMPERIAL       MOCLDY    32  25  75 NW6       29.82F WCI  26
LEXINGTON      CLOUDY    32  29  90 S5        29.83F WCI  27
MCCOOK         CLOUDY    30  28  92 CALM      29.82F
$$

NEZ005>010-023>029-035>040-094-211200-
NORTH CENTRAL NEBRASKA

CITY           SKY/WX    TMP DP  RH WIND       PRES   REMARKS
VALENTINE      MOCLDY    26  23  88 CALM      29.73F
AINSWORTH      CLOUDY    32  26  78 SW9       29.74F WCI  24
BROKEN BOW     MOCLDY    30  26  85 CALM      29.79F
$$

NEZ041-046>049-061>064-073>077-083>087-211200-
SOUTH CENTRAL NEBRASKA

CITY           SKY/WX    TMP DP  RH WIND       PRES   REMARKS
GRAND ISLAND   PTCLDY    31  30  96 S7        29.86F WCI  24
AURORA         PTCLDY    32  32 100 SW6       29.86F FOG     WCI  26
HASTINGS       CLOUDY    33  31  92 S6        29.85F FOG     WCI  28
KEARNEY *      FAIR      30  28  93 SW3       29.85F
$$

NEZ011>018-030>034-042>045-211200-
NORTHEAST NEBRASKA

CITY           SKY/WX    TMP DP  RH WIND       PRES   REMARKS
NORFOLK        FOG       32  32 100 S8        29.84F VSB 3/4 WCI  25
ALBION         FOG       29  28  94 S3        29.83F VSB 1/4
BLAIR          CLOUDY    37  35  94 S13       29.89F FOG     WCI  29
COLUMBUS *     CLOUDY    34  30  86 SW9       29.88F WCI  26
TEKAMAH        CLOUDY    37  35  92 S14       29.90F WCI  28
$$

NEZ050>053-065>068-078-088>093-211200-
SOUTHEAST NEBRASKA

CITY           SKY/WX    TMP DP  RH WIND       PRES   REMARKS
LINCOLN        CLOUDY    39  36  89 S12       29.92F WCI  32
OMAHA EPPLEY   CLOUDY    37  35  92 S10       29.94F FOG     WCI  30
BEATRICE       CLOUDY    38  37  94 S12       29.93F WCI  31
FALLS CITY     CLOUDY    36  33  89 S12       29.99F WCI  28
NEBRASKA CITY  CLOUDY    36  36 100 S14       29.95F FOG     WCI  27
$$

NEZ044-045-051>053-067-211200-
OMAHA AREA

CITY           SKY/WX    TMP DP  RH WIND       PRES   REMARKS
OMAHA EPPLEY   CLOUDY    37  35  92 S10       29.94F FOG     WCI  30
BLAIR          CLOUDY    37  35  94 S13       29.89F FOG     WCI  29
OFFUTT AFB     CLOUDY    36  35  94 SE10      29.93F WCI  29
WAHOO          CLOUDY    38  35  90 S15       29.90F WCI  29
$$


USA.gov is the U.S. government's official web portal to all federal, state and local government web resources and services.